Regional Weather Roundup
Issued by NWS Charleston, SC

Current Version | Previous Version | Graphics & Text | Print | Product List | Glossary On
Versions: 1 2 3 4 5 6 7 8 9 10 11 12 13 14 15 16 17 18 19 20 21 22 23 24 25 26 27 28 29 30 31 32 33 34 35 36 37 38 39 40 41 42 43 44 45 46 47 48 49 50
000
ASUS42 KCHS 011812
RWRCHS

REGIONAL WEATHER ROUNDUP
NATIONAL WEATHER SERVICE CHARLESTON SC
200 PM EDT TUE SEP 01 2015

NOTE: "FAIR" INDICATES FEW OR NO CLOUDS BELOW 12,000 FEET WITH NO
SIGNIFICANT WEATHER AND/OR OBSTRUCTIONS TO VISIBILITY.

NOT ALL STATIONS ARE QUALITY CONTROLLED BY THE NATIONAL
WEATHER SERVICE. USE DATA WITH CAUTION...ESPECIALLY
DEWPOINT OBSERVATIONS.

SCZ027-030-031-034>040-042>050-011900-
...SOUTHEAST SOUTH CAROLINA...

CITY           SKY/WX    TMP DP  RH WIND       PRES   REMARKS
N CHARLESTON   PTSUNNY   87  68  52 CALM      30.09F HX  90
6HR MIN TEMP:  75; 6HR MAX TEMP:  88;

WATERFRONT PRK   N/A     85  75  71 SE5       30.07F HX  93
MOUNT PLEASANT LGT RAIN  86  73  66 S7        30.09F HX  93
JOHNS ISLAND   MOCLDY    86  75  70 CALM      30.09F HX  95
PINOPOLIS        N/A     90  72  55 VRB2      30.03R HX  96
MONCKS CORNER  FAIR      88  70  55 CALM      30.09F HX  92
SUMMERVILLE    FAIR      88  70  55 CALM      30.10S HX  92
BEAUFORT MCAS  PTSUNNY   87  72  60 NE5       30.09F HX  93
6HR MIN TEMP:  74; 6HR MAX TEMP:  88;

BEAUFORT ARPT  FAIR      86  73  66 CALM      30.09F HAZE    HX  93
HILTON HEAD IS MOSUNNY   84  73  70 NE8       30.12S HX  91
WALTERBORO     MOCLDY    90  68  48 CALM      30.10F HX  93
ALLENDALE      FAIR      86  70  58 VRB5      30.10S HX  90

...SOUTHERN MIDLANDS AND PEE DEE...

CITY           SKY/WX    TMP DP  RH WIND       PRES   REMARKS
GEORGETOWN     NOT AVBL
KINGSTREE      NOT AVBL
ORANGEBURG     PTSUNNY   88  67  49 CALM      30.09F HX  91
6HR MIN TEMP:  70; 6HR MAX TEMP:  90;

BARNWELL       FAIR      90  70  51 E6        30.11S HX  95
AIKEN          FAIR      86  63  45 E3        30.14S
MANNING        FAIR      88  63  42 CALM      30.08F
COLUMBIA       PTSUNNY   90  66  45 E6        30.08F HX  92
6HR MIN TEMP:  71; 6HR MAX TEMP:  90;

SUMTER         MOSUNNY   89  67  47 SW5       30.07F HX  92
6HR MIN TEMP:  73; 6HR MAX TEMP:  89;

FLORENCE       MOSUNNY   90  69  50 N3        30.08F HX  94
6HR MIN TEMP:  70; 6HR MAX TEMP:  90;

MYRTLE BEACH   PTSUNNY   84  73  70 S12       30.10R HX  91
N MYRTLE BEACH MOSUNNY   87  71  58 NW5       30.08F HX  93
6HR MIN TEMP:  70; 6HR MAX TEMP:  88;


$$

GAZ063-065-086>088-099>101-113>116-118-119-134>141-150-011900-
...SOUTHEAST GEORGIA...

CITY           SKY/WX    TMP DP  RH WIND       PRES   REMARKS
SAVANNAH ARPT  PTSUNNY   89  71  55 E5        30.09F HX  95
6HR MIN TEMP:  74; 6HR MAX TEMP:  89;

HUNTER AAF     PTSUNNY   85  76  75 NE2       30.07S HX  94
6HR MIN TEMP:  75; 6HR MAX TEMP:  85;

FORT STEWART   PTSUNNY   86  72  64 E6        30.07F HX  92
6HR MIN TEMP:  74; 6HR MAX TEMP:  87;

STATESBORO     MOSUNNY   87  74  66 E3        30.10S HX  96
SYLVANIA       PTCLDY    88  73  60 CALM      30.11S HX  96
CLAXTON        NOT AVBL

...CSRA...CENTRAL AND FAR SOUTHEAST GEORGIA...

CITY           SKY/WX    TMP DP  RH WIND       PRES   REMARKS
THOMSON        SUNNY     87  71  57 CALM      30.16S HX  93
AUGUSTA-BUSH   MOSUNNY   86  66  51 E3        30.09F
6HR MIN TEMP:  68; 6HR MAX TEMP:  88;

AUGUSTA-DANIEL MOSUNNY   90  66  45 NW6       30.11F HX  92
SWAINSBORO     MOCLDY    90  63  40 E6        30.11F HX  90
VIDALIA        MOSUNNY   88  70  55 NE5       30.09F HX  92
EASTMAN        MOCLDY    87  69  56 CALM      30.12S HX  91
HAZLEHURST     MOCLDY    88  71  57 NE3       30.08F HX  94
ALMA           CLOUDY    82  74  76 E7        30.09F
6HR MIN TEMP:  73; 6HR MAX TEMP:  88;

WAYCROSS       CLOUDY    86  80  81 E7        30.09S HX 101
JESUP          MOCLDY    88  77  70 SE6       30.09F HX 100
BAXLEY         CLOUDY    86  73  66 E6        30.09S HX  93
BRUNSWICK      CLOUDY    77  73  88 E9        30.11R THUNDER
SAINT SIMONS   RAIN      75  74  96 NE6       30.10F FOG
6HR MIN TEMP:  74; 6HR MAX TEMP:  80; 6HR PCP:  1.53;


$$

SCZ027-028-034-036>038-045-046-048>050-GAZ119-141-011900-
...LAKE AND SUPPLEMENTAL COASTAL OBSERVATIONS...

STATION/POSITION TIME  TEMP    WIND        PRES    WAVE   SWELL
                       AIR SEA DIR/SP/G            HT/PER HT/PER/DIR
                 (UTC) (F)     (DEG/KT/KT) (MB)    (FT/S) (FT/S/D)
UPR LAKE MARION  NOT AVBL
WINYAH BAY       NOT AVBL
LAKE MURRAY      1700   84     190/  6/  7 1018.6F
ACE BASIN NERRS  NOT AVBL
FORT PULASKI     1700   82 83   80/  7/  9 1019.7F
SAPELO ISLAND    1700   81      60/  7     1019.0

$$

ANZ835-935-AMZ111-154-330-350-352-354-370-450-454-472-011900-
...C-MAN AND BUOY OBSERVATIONS...

STATION/POSITION TIME  TEMP    WIND        PRES    WAVE   SWELL
                       AIR SEA DIR/SP/G            HT/PER HT/PER/DIR
                 (UTC) (F)     (DEG/KT/KT) (MB)    (FT/S) (FT/S/D)
BUOY 41004       1750   81 83   30/  6/  6 1019.0F   3/ 8   3/ 8
BUOY 41008       1750   79 84   70/  6/  8 1019.4R   2/10   2/ 90/10
FOLLY BEACH CMAN 1700   81     110/  4/  4 1019.7F
CAPERS NEARSHORE 1708   82     150/  4/  6 1019.5F
FRIPP NEARSHORE  1700   84      60/  4/  6 1019.2F


STATION/POSITION TIME  TEMP    WIND        PRES    WAVE   SWELL
                       AIR SEA DIR/SP/G            HT/PER HT/PER/DIR
                 (UTC) (F)     (DEG/KT/KT) (MB)    (FT/S) (FT/S/D)
5E ST. MARYS GA  1721      85                N/A     2/ 9
FRYING PAN BUOY  1750   79 81  340/  6/  8 1019.4R   2/ 8   2/130/ 8
BUOY 41025       1750   80 84  350/  6/  8 1017.7F   3/ 7   2/150/ 7
CAPE LOOKOUT NC  1700   81     260/  7/  9 1018.2F
BUOY 41002       1750   84 84  290/  4/  4 1019.2R   3/ 6   3/220/ 6
BUOY 41010       1720   85 87  190/  2/  4 1019.4S
ST AUGUSTINE FL  1800   83 86  130/ 11/ 12 1019.0F


$$


USA.gov is the U.S. government's official web portal to all federal, state and local government web resources and services.